Location: ???????????
(54.5822°N, 39.1075°E)
Time: 03:54:54
(UTC+00:00)

USA 234 - Pass Details

Date: 19 May 2025
Orbit: 1097 x 1111 km, 123.0° (Epoch: 13 June)

Event Time Altitude Azimuth Distance (km) Brightness Sun altitude
Rises 20:42:15 0° 73° (ENE) 3,920 6.3 -15.0°
Reaches altitude 10° 20:44:43 10° 73° (ENE) 2,963 5.6 -15.1°
Maximum altitude 20:51:16 80° 347° (NNW) 1,126 3.4 -15.2°
Drops below altitude 10° 20:57:50 10° 262° (W) 2,969 5.5 -15.3°
Sets 21:00:19 0° 262° (W) 3,928 6.1 -15.3°
